| time (UTC) | temp C | wind direction | speed KPH | gust KPH | rain 1hr cm | rain 24hr cm | rain mn cm | humidity % | barometer mb |
| 20260506014536 | 17 | 199 | 4.8 | 4.8 | 0.00 | 0.00 | 0.00 | 69 | 1017.7 |
| 20260506014031 | 17 | 209 | 4.8 | 4.8 | 0.00 | 0.00 | 0.00 | 70 | 1018.0 |
| 20260506013530 | 17 | 208 | 3.2 | 3.2 | 0.00 | 0.00 | 0.00 | 70 | 1017.7 |
| 20260506013026 | 17 | 188 | 1.6 | 3.2 | 0.00 | 0.00 | 0.00 | 68 | 1017.7 |
| 20260506012523 | 17 | 226 | 4.8 | 4.8 | 0.00 | 0.00 | 0.00 | 68 | 1017.8 |
| 20260506012020 | 17 | 212 | 1.6 | 3.2 | 0.00 | 0.00 | 0.00 | 68 | 1017.9 |
| 20260506011517 | 17 | 211 | 3.2 | 4.8 | 0.00 | 0.00 | 0.00 | 67 | 1018.1 |
| 20260506011014 | 17 | 164 | 1.6 | 4.8 | 0.00 | 0.00 | 0.00 | 67 | 1017.9 |
| 20260506010513 | 18 | 196 | 3.2 | 8.0 | 0.00 | 0.00 | 0.00 | 67 | 1017.8 |
| 20260506010009 | 18 | 181 | 4.8 | 8.0 | 0.00 | 0.00 | 0.00 | 67 | 1017.9 |
| 20260506005507 | 18 | 165 | 1.6 | 3.2 | 0.00 | 0.00 | 0.00 | 67 | 1018.0 |
| 20260506005001 | 17 | 171 | 4.8 | 8.0 | 0.00 | 0.00 | 0.00 | 67 | 1018.0 |
| 20260506004500 | 17 | 162 | 4.8 | 4.8 | 0.00 | 0.00 | 0.00 | 67 | 1017.9 |
| 20260506003955 | 18 | 161 | 4.8 | 9.7 | 0.00 | 0.00 | 0.00 | 66 | 1018.1 |
| 20260506003452 | 18 | 185 | 4.8 | 4.8 | 0.00 | 0.00 | 0.00 | 67 | 1018.1 |
| 20260506002948 | 18 | 188 | 4.8 | 8.0 | 0.00 | 0.00 | 0.00 | 65 | 1018.2 |
| 20260506002445 | 18 | 152 | 6.4 | 9.7 | 0.00 | 0.00 | 0.00 | 66 | 1018.2 |
| 20260506001940 | 17 | 181 | 3.2 | 4.8 | 0.00 | 0.00 | 0.00 | 67 | 1018.2 |
| 20260506001437 | 18 | 176 | 4.8 | 8.0 | 0.00 | 0.00 | 0.00 | 67 | 1018.1 |
| 20260506000935 | 18 | 172 | 3.2 | 9.7 | 0.00 | 0.00 | 0.00 | 67 | 1018.2 |
| 20260506000432 | 18 | 226 | 4.8 | 12.9 | 0.00 | 0.00 | 0.00 | 66 | 1018.3 |
| 20260505235929 | 18 | 191 | 6.4 | 9.7 | 0.00 | 0.00 | 0.00 | 66 | 1018.2 |
| 20260505235427 | 18 | 179 | 1.6 | 4.8 | 0.00 | 0.00 | 0.00 | 67 | 1018.2 |
| 20260505234923 | 17 | 180 | 1.6 | 3.2 | 0.00 | 0.00 | 0.00 | 68 | 1018.4 |
| 20260505234421 | 17 | 204 | 6.4 | 8.0 | 0.00 | 0.00 | 0.00 | 68 | 1018.4 |
| 20260505233917 | 18 | 211 | 3.2 | 4.8 | 0.00 | 0.00 | 0.00 | 67 | 1018.4 |
| 20260505233415 | 17 | 215 | 4.8 | 8.0 | 0.00 | 0.00 | 0.00 | 68 | 1018.5 |
| 20260505232913 | 17 | 203 | 6.4 | 9.7 | 0.00 | 0.00 | 0.00 | 68 | 1018.6 |
| 20260505232411 | 17 | 180 | 3.2 | 9.7 | 0.00 | 0.00 | 0.00 | 68 | 1018.6 |
| 20260505231907 | 17 | 188 | 4.8 | 17.7 | 0.00 | 0.00 | 0.00 | 67 | 1018.8 |
| 20260505231405 | 17 | 207 | 6.4 | 9.7 | 0.00 | 0.00 | 0.00 | 67 | 1018.8 |
| 20260505230903 | 17 | 156 | 4.8 | 12.9 | 0.00 | 0.00 | 0.00 | 67 | 1018.7 |
| 20260505230400 | 17 | 170 | 3.2 | 9.7 | 0.00 | 0.00 | 0.00 | 68 | 1018.5 |
| 20260505225856 | 17 | 208 | 4.8 | 11.3 | 0.00 | 0.00 | 0.00 | 69 | 1019.0 |
| 20260505225354 | 17 | 172 | 4.8 | 8.0 | 0.00 | 0.00 | 0.00 | 70 | 1018.8 |
| 20260505224849 | 16 | 200 | 4.8 | 8.0 | 0.00 | 0.00 | 0.00 | 70 | 1018.6 |
| 20260505224347 | 16 | 184 | 3.2 | 8.0 | 0.00 | 0.00 | 0.00 | 71 | 1019.0 |
| 20260505223843 | 16 | 186 | 6.4 | 11.3 | 0.00 | 0.00 | 0.00 | 70 | 1018.9 |
| 20260505223340 | 17 | 186 | 4.8 | 9.7 | 0.00 | 0.00 | 0.00 | 70 | 1018.9 |
| 20260505222836 | 17 | 184 | 1.6 | 3.2 | 0.00 | 0.00 | 0.00 | 70 | 1019.0 |
| 20260505222332 | 16 | 178 | 8.0 | 12.9 | 0.00 | 0.00 | 0.00 | 70 | 1019.1 |
| 20260505221830 | 16 | 197 | 1.6 | 8.0 | 0.00 | 0.00 | 0.00 | 72 | 1018.9 |
| 20260505221326 | 16 | 142 | 4.8 | 8.0 | 0.00 | 0.00 | 0.00 | 72 | 1019.0 |
| 20260505220823 | 16 | 172 | 4.8 | 9.7 | 0.00 | 0.00 | 0.00 | 71 | 1019.1 |
| 20260505220320 | 16 | 149 | 4.8 | 4.8 | 0.00 | 0.00 | 0.00 | 72 | 1019.4 |
| 20260505215818 | 16 | 194 | 3.2 | 8.0 | 0.00 | 0.00 | 0.00 | 74 | 1019.2 |
| 20260505215316 | 16 | 213 | 3.2 | 8.0 | 0.00 | 0.00 | 0.00 | 72 | 1019.5 |
| 20260505214814 | 16 | 172 | 6.4 | 9.7 | 0.00 | 0.00 | 0.00 | 72 | 1019.2 |
| 20260505214311 | 16 | 175 | 8.0 | 11.3 | 0.00 | 0.00 | 0.00 | 72 | 1019.3 |
| 20260505213808 | 16 | 178 | 20.9 | 25.7 | 0.00 | 0.00 | 0.00 | 72 | 1019.3 |
| 20260505213306 | 16 | 200 | 9.7 | 12.9 | 0.00 | 0.00 | 0.00 | 72 | 1019.4 |
| 20260505212801 | 16 | 200 | 8.0 | 12.9 | 0.00 | 0.00 | 0.00 | 72 | 1019.4 |
| 20260505212259 | 16 | 187 | 9.7 | 14.5 | 0.00 | 0.00 | 0.00 | 73 | 1019.4 |
| 20260505211755 | 15 | 156 | 8.0 | 12.9 | 0.00 | 0.00 | 0.00 | 73 | 1019.0 |
| 20260505211253 | 15 | 190 | 9.7 | 16.1 | 0.00 | 0.00 | 0.00 | 74 | 1019.3 |
| 20260505210749 | 15 | 214 | 9.7 | 12.9 | 0.00 | 0.00 | 0.00 | 74 | 1019.4 |
| 20260505210246 | 15 | 164 | 8.0 | 11.3 | 0.00 | 0.00 | 0.00 | 74 | 1019.5 |
| 20260505205743 | 15 | 166 | 8.0 | 11.3 | 0.00 | 0.00 | 0.00 | 74 | 1019.5 |
| 20260505205241 | 15 | 174 | 3.2 | 9.7 | 0.00 | 0.00 | 0.00 | 74 | 1019.4 |
| 20260505204737 | 15 | 180 | 3.2 | 8.0 | 0.00 | 0.00 | 0.00 | 75 | 1019.6 |
| 20260505204236 | 15 | 156 | 1.6 | 9.7 | 0.00 | 0.00 | 0.00 | 74 | 1019.6 |
| 20260505203732 | 15 | 150 | 6.4 | 9.7 | 0.00 | 0.00 | 0.00 | 74 | 1019.5 |
| 20260505203229 | 15 | 155 | 0.0 | 4.8 | 0.00 | 0.00 | 0.00 | 75 | 1019.3 |
| 20260505202725 | 15 | 201 | 6.4 | 8.0 | 0.00 | 0.00 | 0.00 | 76 | 1019.5 |
| 20260505202221 | 15 | 235 | 9.7 | 14.5 | 0.00 | 0.00 | 0.00 | 76 | 1019.5 |
| 20260505201718 | 15 | 183 | 1.6 | 8.0 | 0.00 | 0.00 | 0.00 | 76 | 1019.3 |
| 20260505201216 | 15 | 187 | 1.6 | 4.8 | 0.00 | 0.00 | 0.00 | 76 | 1019.5 |
| 20260505200714 | 15 | 169 | 3.2 | 8.0 | 0.00 | 0.00 | 0.00 | 76 | 1019.5 |
| 20260505200210 | 15 | 149 | 4.8 | 4.8 | 0.00 | 0.00 | 0.00 | 76 | 1019.5 |
| 20260505195706 | 15 | 152 | 1.6 | 4.8 | 0.00 | 0.00 | 0.00 | 77 | 1019.3 |
| 20260505195204 | 15 | 167 | 0.0 | 8.0 | 0.00 | 0.00 | 0.00 | 77 | 1019.5 |
| 20260505194701 | 14 | 207 | 4.8 | 4.8 | 0.00 | 0.00 | 0.00 | 78 | 1019.4 |
| 20260505194157 | 14 | 242 | 6.4 | 12.9 | 0.00 | 0.00 | 0.00 | 77 | 1019.6 |
| 20260505193653 | 14 | 199 | 8.0 | 11.3 | 0.00 | 0.00 | 0.00 | 78 | 1019.4 |
| 20260505193151 | 14 | 227 | 4.8 | 11.3 | 0.00 | 0.00 | 0.00 | 78 | 1019.6 |
| 20260505192649 | 14 | 156 | 3.2 | 4.8 | 0.00 | 0.00 | 0.00 | 78 | 1019.5 |
| 20260505192146 | 14 | 199 | 4.8 | 8.0 | 0.00 | 0.00 | 0.00 | 78 | 1019.5 |
| 20260505191645 | 14 | 211 | 3.2 | 9.7 | 0.00 | 0.00 | 0.00 | 79 | 1019.6 |
| 20260505191143 | 14 | 163 | 3.2 | 9.7 | 0.00 | 0.00 | 0.00 | 79 | 1019.5 |
| 20260505190638 | 14 | 240 | 4.8 | 4.8 | 0.00 | 0.00 | 0.00 | 79 | 1019.4 |
| 20260505190133 | 14 | 243 | 8.0 | 12.9 | 0.00 | 0.00 | 0.00 | 79 | 1019.4 |
| 20260505185630 | 14 | 229 | 4.8 | 8.0 | 0.00 | 0.00 | 0.00 | 79 | 1019.4 |
| 20260505185126 | 13 | 178 | 4.8 | 8.0 | 0.00 | 0.00 | 0.00 | 80 | 1019.3 |
| 20260505184623 | 13 | 139 | 8.0 | 9.7 | 0.00 | 0.00 | 0.00 | 80 | 1019.4 |
| 20260505184120 | 13 | 124 | 1.6 | 3.2 | 0.00 | 0.00 | 0.00 | 81 | 1019.4 |
| 20260505183616 | 13 | 211 | 4.8 | 8.0 | 0.00 | 0.00 | 0.00 | 80 | 1019.5 |
| 20260505183114 | 13 | 216 | 3.2 | 3.2 | 0.00 | 0.00 | 0.00 | 80 | 1019.5 |
| 20260505182610 | 13 | 177 | 4.8 | 8.0 | 0.00 | 0.00 | 0.00 | 81 | 1019.2 |
| 20260505182107 | 13 | 186 | 6.4 | 9.7 | 0.00 | 0.00 | 0.00 | 80 | 1019.3 |
| 20260505181604 | 13 | 201 | 6.4 | 9.7 | 0.00 | 0.00 | 0.00 | 80 | 1019.2 |
| 20260505181101 | 13 | 211 | 1.6 | 8.0 | 0.00 | 0.00 | 0.00 | 81 | 1019.4 |
| 20260505180557 | 13 | 144 | 4.8 | 9.7 | 0.00 | 0.00 | 0.00 | 80 | 1019.5 |
| 20260505180055 | 13 | 180 | 3.2 | 4.8 | 0.00 | 0.00 | 0.00 | 80 | 1019.2 |
| 20260505175550 | 13 | 159 | 3.2 | 4.8 | 0.00 | 0.00 | 0.00 | 81 | 1019.2 |
| 20260505175047 | 13 | 209 | 3.2 | 4.8 | 0.00 | 0.00 | 0.00 | 80 | 1019.5 |
| 20260505174544 | 13 | 185 | 1.6 | 4.8 | 0.00 | 0.00 | 0.00 | 81 | 1019.2 |
| 20260505174039 | 13 | 167 | 1.6 | 4.8 | 0.00 | 0.00 | 0.00 | 81 | 1019.3 |
| 20260505173536 | 13 | 164 | 3.2 | 3.2 | 0.00 | 0.00 | 0.00 | 81 | 1019.2 |
| 20260505173033 | 13 | 136 | 1.6 | 3.2 | 0.00 | 0.00 | 0.00 | 81 | 1019.2 |
| 20260505172531 | 13 | 167 | 1.6 | 3.2 | 0.00 | 0.00 | 0.00 | 81 | 1019.1 |
| 20260505172027 | 13 | 160 | 3.2 | 4.8 | 0.00 | 0.00 | 0.00 | 81 | 1019.3 |
| 20260505171522 | 13 | 161 | 1.6 | 3.2 | 0.00 | 0.00 | 0.00 | 81 | 1019.2 |
| 20260505171019 | 13 | 162 | 0.0 | 1.6 | 0.00 | 0.00 | 0.00 | 82 | 1019.2 |
| 20260505170516 | 13 | 170 | 0.0 | 1.6 | 0.00 | 0.00 | 0.00 | 82 | 1019.0 |
| 20260505170012 | 13 | 157 | 0.0 | 1.6 | 0.00 | 0.00 | 0.00 | 82 | 1019.0 |
| 20260505165507 | 13 | 163 | 0.0 | 3.2 | 0.00 | 0.00 | 0.00 | 82 | 1019.0 |
| 20260505165003 | 13 | 196 | 3.2 | 3.2 | 0.00 | 0.00 | 0.00 | 82 | 1019.1 |
| 20260505164500 | 13 | 188 | 4.8 | 4.8 | 0.00 | 0.00 | 0.00 | 82 | 1019.2 |
| 20260505163958 | 13 | 206 | 3.2 | 4.8 | 0.00 | 0.00 | 0.00 | 82 | 1018.9 |
| 20260505163456 | 13 | 198 | 3.2 | 4.8 | 0.00 | 0.00 | 0.00 | 82 | 1019.1 |
| 20260505162956 | 13 | 174 | 1.6 | 3.2 | 0.00 | 0.00 | 0.00 | 82 | 1019.0 |
| 20260505162450 | 13 | 171 | 1.6 | 3.2 | 0.00 | 0.00 | 0.00 | 82 | 1019.0 |
| 20260505161947 | 13 | 173 | 1.6 | 1.6 | 0.00 | 0.00 | 0.00 | 82 | 1018.9 |
| 20260505161444 | 13 | 165 | 3.2 | 3.2 | 0.00 | 0.00 | 0.00 | 82 | 1018.8 |
| 20260505160942 | 13 | 186 | 1.6 | 3.2 | 0.00 | 0.00 | 0.00 | 82 | 1018.8 |
| 20260505160440 | 13 | 185 | 1.6 | 1.6 | 0.00 | 0.00 | 0.00 | 83 | 1018.5 |
| 20260505152916 | 12 | 177 | 1.6 | 1.6 | 0.00 | 0.00 | 0.00 | 84 | 1018.8 |
| 20260505152413 | 12 | 180 | 1.6 | 3.2 | 0.00 | 0.00 | 0.00 | 84 | 1018.7 |
| 20260505151907 | 12 | 161 | 1.6 | 4.8 | 0.00 | 0.00 | 0.00 | 84 | 1018.8 |
| 20260505151404 | 12 | 161 | 0.0 | 1.6 | 0.00 | 0.00 | 0.00 | 84 | 1018.7 |
| 20260505150902 | 12 | 195 | 3.2 | 4.8 | 0.00 | 0.00 | 0.00 | 84 | 1018.7 |
| 20260505150359 | 12 | 196 | 4.8 | 9.7 | 0.00 | 0.00 | 0.00 | 84 | 1018.7 |
| 20260505140323 | 12 | 188 | 3.2 | 3.2 | 0.00 | 0.00 | 0.00 | 85 | 1017.8 |
| 20260505130246 | 12 | 160 | 1.6 | 1.6 | 0.00 | 0.00 | 0.00 | 85 | 1017.4 |
| 20260505124737 | 12 | 191 | 4.8 | 4.8 | 0.00 | 0.00 | 0.00 | 85 | 1017.3 |
| 20260505124233 | 12 | 165 | 3.2 | 4.8 | 0.00 | 0.00 | 0.00 | 85 | 1017.4 |
| 20260505123728 | 12 | 161 | 1.6 | 9.7 | 0.00 | 0.00 | 0.00 | 85 | 1017.3 |
| 20260505123226 | 12 | 166 | 1.6 | 4.8 | 0.00 | 0.00 | 0.00 | 85 | 1017.3 |
| 20260505122722 | 12 | 193 | 3.2 | 4.8 | 0.00 | 0.00 | 0.00 | 86 | 1017.3 |
| 20260505122220 | 12 | 163 | 3.2 | 4.8 | 0.00 | 0.00 | 0.00 | 86 | 1017.2 |
| 20260505121716 | 12 | 203 | 1.6 | 8.0 | 0.00 | 0.00 | 0.00 | 86 | 1017.2 |
| 20260505121213 | 12 | 162 | 4.8 | 8.0 | 0.00 | 0.00 | 0.00 | 86 | 1017.0 |
| 20260505120709 | 12 | 198 | 3.2 | 3.2 | 0.00 | 0.00 | 0.00 | 86 | 1017.1 |
| 20260505120205 | 12 | 170 | 4.8 | 8.0 | 0.00 | 0.00 | 0.00 | 86 | 1017.2 |
| 20260505115658 | 12 | 175 | 1.6 | 3.2 | 0.00 | 0.00 | 0.00 | 86 | 1017.1 |
| 20260505115156 | 12 | 190 | 1.6 | 9.7 | 0.00 | 0.00 | 0.00 | 86 | 1017.0 |
| 20260505114654 | 12 | 203 | 4.8 | 4.8 | 0.00 | 0.00 | 0.00 | 86 | 1017.2 |
| 20260505114149 | 12 | 210 | 6.4 | 8.0 | 0.00 | 0.00 | 0.00 | 86 | 1017.1 |
| 20260505113646 | 12 | 151 | 1.6 | 4.8 | 0.00 | 0.00 | 0.00 | 86 | 1017.0 |
| 20260505113143 | 12 | 184 | 3.2 | 4.8 | 0.00 | 0.00 | 0.00 | 86 | 1017.0 |
| 20260505112639 | 12 | 131 | 4.8 | 9.7 | 0.00 | 0.00 | 0.00 | 86 | 1017.1 |
| 20260505112138 | 12 | 157 | 3.2 | 8.0 | 0.00 | 0.00 | 0.00 | 86 | 1016.9 |
| 20260505111637 | 12 | 175 | 3.2 | 3.2 | 0.00 | 0.00 | 0.00 | 86 | 1017.2 |
| 20260505111133 | 12 | 192 | 1.6 | 4.8 | 0.00 | 0.00 | 0.00 | 86 | 1017.0 |
| 20260505110629 | 12 | 129 | 8.0 | 11.3 | 0.00 | 0.00 | 0.00 | 86 | 1016.9 |
| 20260505110127 | 12 | 203 | 3.2 | 8.0 | 0.00 | 0.00 | 0.00 | 86 | 1016.8 |
| 20260505102102 | 12 | 202 | 8.0 | 9.7 | 0.00 | 0.00 | 0.00 | 86 | 1016.7 |
| 20260505101601 | 12 | 167 | 6.4 | 9.7 | 0.00 | 0.00 | 0.00 | 86 | 1016.7 |
| 20260505101057 | 12 | 149 | 6.4 | 12.9 | 0.00 | 0.00 | 0.00 | 86 | 1016.4 |
| 20260505100553 | 12 | 183 | 3.2 | 9.7 | 0.00 | 0.00 | 0.00 | 87 | 1016.5 |
| 20260505100050 | 12 | 218 | 8.0 | 9.7 | 0.00 | 0.00 | 0.00 | 87 | 1016.4 |
| 20260505095546 | 12 | 206 | 4.8 | 9.7 | 0.00 | 0.00 | 0.00 | 87 | 1016.4 |
| 20260505095043 | 12 | 174 | 4.8 | 11.3 | 0.00 | 0.00 | 0.00 | 87 | 1016.3 |
| 20260505094539 | 12 | 179 | 4.8 | 11.3 | 0.00 | 0.00 | 0.00 | 87 | 1016.5 |
| 20260505094036 | 12 | 181 | 4.8 | 12.9 | 0.00 | 0.00 | 0.00 | 86 | 1016.5 |
| 20260505093532 | 12 | 221 | 8.0 | 12.9 | 0.00 | 0.00 | 0.00 | 86 | 1016.3 |
| 20260505093030 | 12 | 169 | 6.4 | 14.5 | 0.00 | 0.00 | 0.00 | 86 | 1016.3 |
| 20260505092527 | 12 | 238 | 8.0 | 11.3 | 0.00 | 0.00 | 0.00 | 87 | 1016.3 |
| 20260505092025 | 12 | 151 | 4.8 | 11.3 | 0.00 | 0.00 | 0.00 | 87 | 1016.5 |
| 20260505091522 | 12 | 209 | 8.0 | 11.3 | 0.00 | 0.00 | 0.00 | 87 | 1016.3 |
| 20260505091020 | 12 | 185 | 8.0 | 14.5 | 0.00 | 0.00 | 0.00 | 87 | 1016.2 |
| 20260505090518 | 12 | 193 | 4.8 | 8.0 | 0.00 | 0.00 | 0.00 | 87 | 1016.3 |
| 20260505090015 | 12 | 212 | 4.8 | 14.5 | 0.00 | 0.00 | 0.00 | 87 | 1016.1 |
| 20260505085513 | 12 | 220 | 9.7 | 14.5 | 0.00 | 0.00 | 0.00 | 87 | 1016.0 |
| 20260505085011 | 12 | 171 | 4.8 | 8.0 | 0.00 | 0.00 | 0.00 | 87 | 1016.1 |
| 20260505084509 | 12 | 210 | 4.8 | 8.0 | 0.00 | 0.00 | 0.00 | 87 | 1015.9 |
| 20260505084007 | 12 | 197 | 4.8 | 9.7 | 0.00 | 0.00 | 0.00 | 87 | 1016.2 |
| 20260505083504 | 12 | 215 | 4.8 | 11.3 | 0.00 | 0.00 | 0.00 | 86 | 1016.1 |
| 20260505083000 | 12 | 201 | 6.4 | 9.7 | 0.00 | 0.00 | 0.00 | 86 | 1016.0 |
| 20260505082455 | 12 | 182 | 4.8 | 12.9 | 0.00 | 0.00 | 0.00 | 87 | 1016.0 |
| 20260505081953 | 12 | 197 | 4.8 | 9.7 | 0.00 | 0.00 | 0.00 | 87 | 1016.0 |
| 20260505081450 | 12 | 196 | 3.2 | 9.7 | 0.00 | 0.00 | 0.00 | 87 | 1016.0 |
| 20260505080946 | 12 | 168 | 3.2 | 8.0 | 0.00 | 0.00 | 0.00 | 87 | 1016.0 |
| 20260505080442 | 12 | 196 | 8.0 | 11.3 | 0.00 | 0.00 | 0.00 | 87 | 1015.6 |
| 20260505075938 | 12 | 185 | 1.6 | 9.7 | 0.00 | 0.00 | 0.00 | 87 | 1015.8 |
| 20260505075435 | 12 | 172 | 1.6 | 4.8 | 0.00 | 0.00 | 0.00 | 87 | 1015.8 |
| 20260505074933 | 12 | 149 | 1.6 | 3.2 | 0.00 | 0.00 | 0.00 | 87 | 1015.8 |
| 20260505074430 | 12 | 172 | 1.6 | 3.2 | 0.00 | 0.00 | 0.00 | 87 | 1015.8 |
| 20260505073926 | 12 | 184 | 3.2 | 4.8 | 0.00 | 0.00 | 0.00 | 86 | 1015.6 |
| 20260505073424 | 12 | 210 | 3.2 | 3.2 | 0.00 | 0.00 | 0.00 | 86 | 1015.6 |
| 20260505072921 | 12 | 209 | 4.8 | 4.8 | 0.00 | 0.00 | 0.00 | 86 | 1015.6 |
| 20260505072417 | 12 | 144 | 1.6 | 3.2 | 0.00 | 0.00 | 0.00 | 86 | 1015.7 |
| 20260505071914 | 12 | 188 | 4.8 | 8.0 | 0.00 | 0.00 | 0.00 | 86 | 1015.7 |
| 20260505071410 | 12 | 221 | 4.8 | 8.0 | 0.00 | 0.00 | 0.00 | 86 | 1015.5 |
| 20260505070908 | 12 | 191 | 3.2 | 8.0 | 0.00 | 0.00 | 0.00 | 86 | 1015.5 |
| 20260505070404 | 12 | 176 | 1.6 | 4.8 | 0.00 | 0.00 | 0.00 | 86 | 1015.3 |
| 20260505065900 | 12 | 181 | 3.2 | 4.8 | 0.00 | 0.00 | 0.00 | 86 | 1015.2 |
| 20260505065357 | 12 | 228 | 4.8 | 4.8 | 0.00 | 0.00 | 0.00 | 86 | 1015.1 |
| 20260505064854 | 12 | 169 | 4.8 | 8.0 | 0.00 | 0.00 | 0.00 | 86 | 1015.1 |
| 20260505064351 | 12 | 219 | 4.8 | 9.7 | 0.00 | 0.00 | 0.00 | 86 | 1015.2 |
| 20260505063849 | 12 | 154 | 4.8 | 8.0 | 0.00 | 0.00 | 0.00 | 86 | 1015.3 |
| 20260505063344 | 12 | 162 | 3.2 | 4.8 | 0.00 | 0.00 | 0.00 | 86 | 1015.3 |
| 20260505062841 | 12 | 161 | 4.8 | 8.0 | 0.00 | 0.00 | 0.00 | 86 | 1015.2 |
| 20260505062339 | 12 | 199 | 3.2 | 3.2 | 0.00 | 0.00 | 0.00 | 86 | 1015.0 |
| 20260505061835 | 12 | 157 | 4.8 | 11.3 | 0.00 | 0.00 | 0.00 | 86 | 1015.1 |
| 20260505061334 | 12 | 150 | 4.8 | 8.0 | 0.00 | 0.00 | 0.00 | 86 | 1015.0 |
| 20260505060831 | 12 | 202 | 4.8 | 8.0 | 0.00 | 0.00 | 0.00 | 85 | 1014.7 |
| 20260505060327 | 13 | 145 | 3.2 | 9.7 | 0.00 | 0.00 | 0.00 | 85 | 1014.8 |
| 20260505055823 | 13 | 212 | 8.0 | 9.7 | 0.00 | 0.00 | 0.00 | 85 | 1014.8 |
| 20260505055319 | 13 | 177 | 3.2 | 12.9 | 0.00 | 0.00 | 0.00 | 85 | 1014.8 |
| 20260505054817 | 13 | 212 | 6.4 | 9.7 | 0.00 | 0.00 | 0.00 | 84 | 1014.8 |
| 20260505054314 | 13 | 198 | 6.4 | 12.9 | 0.00 | 0.00 | 0.00 | 84 | 1014.8 |
| 20260505053813 | 13 | 148 | 4.8 | 4.8 | 0.00 | 0.00 | 0.00 | 84 | 1014.6 |
| 20260505053309 | 13 | 188 | 4.8 | 8.0 | 0.00 | 0.00 | 0.00 | 84 | 1014.7 |
| 20260505052806 | 13 | 150 | 3.2 | 9.7 | 0.00 | 0.00 | 0.00 | 84 | 1014.6 |
| 20260505052304 | 13 | 161 | 3.2 | 8.0 | 0.00 | 0.00 | 0.00 | 83 | 1014.7 |
| 20260505051800 | 13 | 148 | 3.2 | 8.0 | 0.00 | 0.00 | 0.00 | 83 | 1014.5 |
| 20260505051258 | 13 | 213 | 4.8 | 8.0 | 0.00 | 0.00 | 0.00 | 83 | 1014.6 |
| 20260505050755 | 13 | 189 | 4.8 | 8.0 | 0.00 | 0.00 | 0.00 | 83 | 1014.3 |
| 20260505050254 | 13 | 199 | 4.8 | 9.7 | 0.00 | 0.00 | 0.00 | 82 | 1014.3 |
| 20260505041724 | 15 | 166 | 4.8 | 11.3 | 0.00 | 0.00 | 0.00 | 77 | 1013.8 |
| 20260505041221 | 15 | 182 | 6.4 | 9.7 | 0.00 | 0.00 | 0.00 | 75 | 1013.7 |
| 20260505040718 | 16 | 124 | 4.8 | 11.3 | 0.00 | 0.00 | 0.00 | 74 | 1013.7 |
| 20260505040215 | 16 | 198 | 4.8 | 11.3 | 0.00 | 0.00 | 0.00 | 74 | 1013.5 |
| 20260505035712 | 16 | 204 | 3.2 | 8.0 | 0.00 | 0.00 | 0.00 | 75 | 1013.4 |
| 20260505035208 | 16 | 216 | 3.2 | 12.9 | 0.00 | 0.00 | 0.00 | 74 | 1013.2 |
| 20260505034704 | 16 | 198 | 4.8 | 9.7 | 0.00 | 0.00 | 0.00 | 74 | 1013.0 |
| 20260505034202 | 16 | 147 | 3.2 | 11.3 | 0.00 | 0.00 | 0.00 | 74 | 1013.2 |
| 20260505033658 | 16 | 184 | 9.7 | 11.3 | 0.00 | 0.00 | 0.00 | 73 | 1013.1 |
| 20260505033156 | 16 | 198 | 6.4 | 9.7 | 0.00 | 0.00 | 0.00 | 72 | 1013.2 |
| 20260505032654 | 17 | 161 | 3.2 | 4.8 | 0.00 | 0.00 | 0.00 | 71 | 1012.8 |
| 20260505032155 | 17 | 214 | 6.4 | 9.7 | 0.00 | 0.00 | 0.00 | 71 | 1012.9 |
| 20260505031652 | 17 | 139 | 6.4 | 9.7 | 0.00 | 0.00 | 0.00 | 70 | 1012.8 |
| 20260505031149 | 17 | 201 | 1.6 | 8.0 | 0.00 | 0.00 | 0.00 | 70 | 1012.8 |
| 20260505030646 | 17 | 159 | 4.8 | 4.8 | 0.00 | 0.00 | 0.00 | 70 | 1012.7 |
| 20260505030141 | 17 | 123 | 3.2 | 4.8 | 0.00 | 0.00 | 0.00 | 70 | 1012.7 |
| 20260505025637 | 17 | 162 | 6.4 | 8.0 | 0.00 | 0.00 | 0.00 | 70 | 1012.7 |
| 20260505025136 | 17 | 187 | 4.8 | 8.0 | 0.00 | 0.00 | 0.00 | 69 | 1012.5 |
| 20260505024633 | 18 | 206 | 4.8 | 9.7 | 0.00 | 0.00 | 0.00 | 68 | 1012.7 |
| 20260505024131 | 19 | 189 | 8.0 | 11.3 | 0.00 | 0.00 | 0.00 | 66 | 1012.5 |
| 20260505023628 | 20 | 170 | 4.8 | 8.0 | 0.00 | 0.00 | 0.00 | 64 | 1012.5 |
| 20260505023125 | 20 | 192 | 4.8 | 8.0 | 0.00 | 0.00 | 0.00 | 62 | 1012.3 |
| 20260505022623 | 20 | 187 | 3.2 | 8.0 | 0.00 | 0.00 | 0.00 | 61 | 1012.5 |
| 20260505022119 | 20 | 190 | 4.8 | 8.0 | 0.00 | 0.00 | 0.00 | 61 | 1012.5 |
| 20260505021616 | 20 | 193 | 4.8 | 8.0 | 0.00 | 0.00 | 0.00 | 60 | 1012.2 |
| 20260505021113 | 21 | 157 | 4.8 | 11.3 | 0.00 | 0.00 | 0.00 | 58 | 1012.3 |
| 20260505020608 | 21 | 211 | 4.8 | 4.8 | 0.00 | 0.00 | 0.00 | 57 | 1012.3 |
| 20260505020105 | 22 | 194 | 1.6 | 4.8 | 0.00 | 0.00 | 0.00 | 56 | 1012.3 |
| 20260505015602 | 22 | 182 | 3.2 | 8.0 | 0.00 | 0.00 | 0.00 | 57 | 1012.2 |
| 20260505015059 | 22 | 201 | 9.7 | 11.3 | 0.00 | 0.00 | 0.00 | 56 | 1012.2 |